Home > Weather > Perchtoldsdorf > Past weeks

Flag for Austria Past Weather in Perchtoldsdorf, Lower Austria, Austria — Yesterday and Last 2 Weeks

Now
55 °F

Cool.


Feels Like: 52 °F
Forecast: 54 / 68 °F
Wind: 10 mph from West

Location: Wien / Hohe Warte

Current Time: May 24, 2016 at 11:45:16 PM

Latest Report: May 24, 2016 at 11:00 PM


Visibility: N/A

Pressure: 29.80 "Hg

Humidity: 82%

Dew Point: 49 °F

Location of PerchtoldsdorfLocation

Past Weather in Perchtoldsdorf — Graph

°F

Perchtoldsdorf Temperature Yesterday

Maximum temperature yesterday: 80 °F (at 5:00 PM)
Minimum temperature yesterday: 54 °F (at 11:00 PM)
Average temperature yesterday: 68 °F

High & Low Weather Summary for the Past Weeks

 TemperatureHumidityPressure
High80 °F (May 23, 5:00 PM)98% (May 12, 10:00 PM)30.13 "Hg (May 12, 10:00 PM)
Low44 °F (May 16, 4:00 AM)36% (May 18, 1:00 PM)29.32 "Hg (May 13, 4:00 AM)
Average59 °F69%29.85 "Hg
* Reported May 9 10:00 PM — May 24 10:00 PM, Perchtoldsdorf, Weather by CustomWeather, © 2016

Note: Actual official high and low records may vary slightly from our data, if they occured in-between our weather recording intervals... More about our weather records

Advertising

Perchtoldsdorf Weather History for the Previous 24 Hours

Scroll right to see more
 ConditionsComfort  
Time TempWeatherWind HumidityBarometerVisibility
10:00 PM
Tue, May 24
55 °FLight rain. Overcast.12 mph82%29.80 "Hg9 mi
9:00 PM56 °FOvercast.10 mph78%29.79 "Hg12 mi
8:00 PM56 °FOvercast.10 mph78%29.77 "Hg37 mi
7:00 PM57 °FPartly sunny.12 mph76%29.76 "Hg37 mi
6:00 PM58 °FOvercast.12 mph73%29.74 "Hg31 mi
5:00 PM59 °FOvercast.9 mph73%29.75 "Hg31 mi
4:00 PM61 °FOvercast.12 mph70%29.75 "Hg34 mi
3:00 PM60 °FOvercast.9 mph74%29.76 "Hg34 mi
2:00 PM60 °FOvercast.9 mph74%29.77 "Hg25 mi
1:00 PM57 °FOvercast.9 mph80%29.78 "Hg25 mi
12:00 PM53 °FLight rain. Overcast.9 mph88%29.78 "Hg19 mi
11:00 AM51 °FLight rain. Overcast.5 mph93%29.79 "Hg10 mi
10:00 AM50 °FRain. Overcast.8 mph93%29.78 "Hg6 mi
9:00 AM50 °FLight rain. Overcast.5 mph91%29.80 "Hg10 mi
8:00 AM49 °FOvercast.8 mph92%29.75 "Hg10 mi
7:00 AM49 °FRain. Overcast.8 mph94%29.78 "Hg5 mi
6:00 AM49 °FRain. Overcast.7 mph93%29.79 "Hg3 mi
5:00 AM49 °FCool.8 mph93%29.78 "HgN/A
4:00 AM49 °FRain. Overcast.8 mph94%29.77 "Hg6 mi
3:00 AM49 °FCool.10 mph89%29.79 "HgN/A
2:00 AM50 °FLight rain. Overcast.9 mph88%29.79 "Hg19 mi
12:00 AM51 °FSprinkles. Overcast.9 mph88%29.81 "HgN/A
11:00 PM
Mon, May 23
54 °FCool.14 mph75%29.78 "HgN/A
Weather by CustomWeather, © 2016

See weather overviewHow to use our weather pages